EW2575 Weather Reports


Display with metric or nautical units.
time (UTC)temp
F
wind
direction
speed
MPH
gust
MPH
rain 1hr
in
rain 24hr
in
rain mn
in
humidity
%
barometer
mb
20260904103544 72 271 1.0 7.0 0.00 0.00 0.00 83 1020.1
20260904103042 72 254 2.0 7.0 0.00 0.00 0.00 83 1020.1
20260904102541 72 243 2.0 5.0 0.00 0.00 0.00 83 1020.0
20260904102039 71 284 2.0 5.0 0.00 0.00 0.00 82 1020.0
20260904101542 71 301 2.0 5.0 0.00 0.00 0.00 82 1020.0
20260904101036 71 206 3.0 7.0 0.00 0.00 0.00 82 1020.1
20260904100535 71 275 3.0 7.0 0.00 0.00 0.00 81 1020.1
20260904100034 71 272 2.0 8.0 0.00 0.00 0.00 80 1020.1
20260904095534 71 261 4.0 8.0 0.00 0.00 0.00 80 1020.0
20260904095034 71 281 2.0 7.0 0.00 0.00 0.00 80 1019.9
20260904094548 71 279 2.0 5.0 0.00 0.00 0.00 79 1019.8
20260904094033 71 230 1.0 5.0 0.00 0.00 0.00 78 1019.8
20260904093533 71 314 2.0 5.0 0.00 0.00 0.00 77 1019.8
20260904093032 72 265 3.0 6.0 0.00 0.00 0.00 76 1019.8
20260904092531 72 317 2.0 4.0 0.00 0.00 0.00 75 1019.8
20260904092034 71 333 1.0 3.0 0.00 0.00 0.00 74 1019.8
20260904091529 71 333 1.0 3.0 0.00 0.00 0.00 74 1019.7
20260904091026 71 333 1.0 3.0 0.00 0.00 0.00 73 1019.7
20260904090530 71 333 0.0 2.0 0.00 0.00 0.00 75 1019.7
20260904090027 71 333 0.0 2.0 0.00 0.00 0.00 74 1019.8
20260904085522 71 333 0.0 2.0 0.00 0.00 0.00 73 1019.8
20260904085027 71 333 1.0 3.0 0.00 0.00 0.00 70 1019.7
20260904084520 71 333 1.0 3.0 0.00 0.00 0.00 64 1019.7
20260904084019 72 107 1.0 3.0 0.00 0.00 0.00 61 1019.7
20260904083517 72 107 1.0 3.0 0.00 0.00 0.00 53 1019.7
20260904083015 73 107 0.0 2.0 0.00 0.00 0.00 47 1019.6
20260904082515 73 107 0.0 3.0 0.00 0.00 0.00 42 1019.6
20260904082012 73 107 0.0 4.0 0.00 0.00 0.00 38 1019.6
20260904081511 72 107 2.0 4.0 0.00 0.00 0.00 37 1019.6
20260904081009 72 107 0.0 1.0 0.00 0.00 0.00 41 1019.7
20260904080509 71 107 0.0 1.0 0.00 0.00 0.00 45 1019.7
20260904080009 71 107 0.0 3.0 0.00 0.00 0.00 44 1019.6
20260904075506 70 107 1.0 4.0 0.00 0.00 0.00 39 1019.5
20260904075004 70 107 2.0 6.0 0.00 0.00 0.00 37 1019.4
20260904074502 69 99 4.0 6.0 0.00 0.00 0.00 35 1019.3
20260904074004 69 113 4.0 7.0 0.00 0.00 0.00 35 1019.3
20260904073559 69 109 5.0 7.0 0.00 0.00 0.00 35 1019.3
20260904073058 69 102 5.0 8.0 0.00 0.00 0.00 35 1019.2
20260904072557 68 110 5.0 8.0 0.00 0.00 0.00 35 1019.2
20260904072059 68 106 5.0 8.0 0.00 0.00 0.00 36 1019.2
20260904071556 68 109 6.0 9.0 0.00 0.00 0.00 37 1019.1
20260904071055 68 110 6.0 9.0 0.00 0.00 0.00 38 1019.1
20260904070555 68 113 5.0 8.0 0.00 0.00 0.00 37 1019.1
20260904070054 68 118 6.0 7.0 0.00 0.00 0.00 38 1019.0
20260904065554 68 106 4.0 7.0 0.00 0.00 0.00 39 1019.0
20260904065053 68 106 4.0 7.0 0.00 0.00 0.00 42 1019.0
20260904064603 68 98 3.0 7.0 0.00 0.00 0.00 40 1019.1
20260904064057 69 90 4.0 7.0 0.00 0.00 0.00 35 1019.1
20260904063552 68 93 4.0 7.0 0.00 0.00 0.00 36 1019.0
20260904063052 69 114 5.0 8.0 0.00 0.00 0.00 40 1019.0
20260904062550 69 110 6.0 8.0 0.00 0.00 0.00 39 1018.9
20260904062051 69 113 6.0 9.0 0.00 0.00 0.00 38 1018.9
20260904061550 69 107 7.0 8.0 0.00 0.00 0.00 36 1018.9
20260904061051 69 108 7.0 8.0 0.00 0.00 0.00 34 1018.9
20260904060550 69 113 6.0 8.0 0.00 0.00 0.00 37 1018.8
20260904060115 69 116 6.0 8.0 0.00 0.00 0.00 36 1018.8
20260904055549 69 100 6.0 10.0 0.00 0.00 0.00 38 1018.7
20260904055049 68 111 8.0 10.0 0.00 0.00 0.00 40 1018.6
20260904054549 68 110 8.0 10.0 0.00 0.00 0.00 39 1018.7
20260904054048 68 109 7.0 10.0 0.00 0.00 0.00 42 1018.6
20260904053547 68 110 8.0 10.0 0.00 0.00 0.00 43 1018.6
20260904053136 68 112 7.0 9.0 0.00 0.00 0.00 44 1018.6
20260904052547 68 107 7.0 9.0 0.00 0.00 0.00 39 1018.7
20260904052047 68 110 7.0 9.0 0.00 0.00 0.00 37 1018.7
20260904051605 68 112 6.0 10.0 0.00 0.00 0.00 37 1018.7
20260904051046 68 121 7.0 10.0 0.00 0.00 0.00 36 1018.7
20260904050545 68 117 7.0 10.0 0.00 0.00 0.00 43 1018.8
20260904050046 68 110 7.0 9.0 0.00 0.00 0.00 47 1018.7
20260904045545 69 106 7.0 8.0 0.00 0.00 0.00 48 1018.6
20260904045045 69 106 6.0 8.0 0.00 0.00 0.00 46 1018.7
20260904044558 69 96 5.0 8.0 0.00 0.00 0.00 45 1018.7
20260904044045 69 106 6.0 8.0 0.00 0.00 0.00 45 1018.7
20260904043544 69 105 6.0 8.0 0.00 0.00 0.00 43 1018.7
20260904043044 69 112 6.0 8.0 0.00 0.00 0.00 41 1018.6
20260904042544 69 119 6.0 9.0 0.00 0.00 0.00 40 1018.5
20260904042044 68 118 7.0 10.0 0.00 0.00 0.00 39 1018.5
20260904041546 68 113 8.0 10.0 0.00 0.00 0.00 43 1018.5
20260904041043 68 115 8.0 10.0 0.00 0.00 0.00 44 1018.5
20260904040542 68 108 8.0 10.0 0.00 0.00 0.00 44 1018.6
20260904040048 68 107 7.0 9.0 0.00 0.00 0.00 44 1018.6
20260904035540 69 105 6.0 8.0 0.00 0.00 0.00 43 1018.8
20260904035042 69 103 4.0 6.0 0.00 0.00 0.00 44 1018.9
20260904034540 69 107 2.0 6.0 0.00 0.00 0.00 45 1018.9
20260904034040 69 112 3.0 8.0 0.00 0.00 0.00 44 1018.9
20260904033540 69 119 5.0 8.0 0.00 0.00 0.00 40 1018.9
20260904033052 69 110 4.0 8.0 0.00 0.00 0.00 39 1018.9
20260904032538 69 109 5.0 8.0 0.00 0.00 0.00 39 1018.9
20260904032038 69 103 6.0 9.0 0.00 0.00 0.00 39 1018.9
20260904031538 69 112 7.0 9.0 0.00 0.00 0.00 41 1018.8
20260904031038 69 96 7.0 8.0 0.00 0.00 0.00 42 1018.8
20260904030537 69 113 7.0 8.0 0.00 0.00 0.00 42 1018.9
20260904030036 69 103 6.0 8.0 0.00 0.00 0.00 42 1019.0
20260904025535 69 107 6.0 9.0 0.00 0.00 0.00 42 1019.2
20260904025035 69 111 7.0 9.0 0.00 0.00 0.00 41 1019.4
20260904024535 69 109 7.0 9.0 0.00 0.00 0.00 40 1019.4
20260904024033 69 113 6.0 8.0 0.00 0.00 0.00 42 1019.4
20260904023531 69 112 6.0 9.0 0.00 0.00 0.00 42 1019.4
20260904023034 69 107 7.0 10.0 0.00 0.00 0.00 42 1019.5
20260904022530 69 112 8.0 10.0 0.00 0.00 0.00 41 1019.6
20260904022030 68 101 7.0 10.0 0.00 0.00 0.00 44 1019.6
20260904021532 68 107 7.0 9.0 0.00 0.00 0.00 45 1019.7
20260904021028 68 108 6.0 9.0 0.00 0.00 0.00 46 1019.7
20260904020528 68 114 7.0 9.0 0.00 0.00 0.00 47 1019.6
20260904020028 68 105 6.0 9.0 0.00 0.00 0.00 48 1019.7
20260904015527 68 109 7.0 9.0 0.00 0.00 0.00 48 1019.8
20260904015026 68 105 7.0 9.0 0.00 0.00 0.00 48 1019.8
20260904014527 68 115 7.0 9.0 0.00 0.00 0.00 45 1019.9
20260904014024 68 107 7.0 10.0 0.00 0.00 0.00 46 1020.0
20260904013522 68 115 7.0 10.0 0.00 0.00 0.00 47 1020.1
20260904013022 68 109 6.0 10.0 0.00 0.00 0.00 49 1020.2
20260904012525 68 119 6.0 10.0 0.00 0.00 0.00 50 1020.1
20260904012020 67 108 6.0 9.0 0.00 0.00 0.00 51 1020.1
20260904011519 67 99 7.0 9.0 0.00 0.00 0.00 52 1020.2
20260904011017 67 117 6.0 8.0 0.00 0.00 0.00 57 1020.3
20260904010521 67 116 5.0 8.0 0.00 0.00 0.00 59 1020.4
20260904010017 67 96 6.0 8.0 0.00 0.00 0.00 57 1020.4
20260904005516 67 105 5.0 8.0 0.00 0.00 0.00 60 1020.4
20260904005014 67 119 6.0 8.0 0.00 0.00 0.00 61 1020.5
20260904004513 67 112 6.0 8.0 0.00 0.00 0.00 65 1020.5
20260904004012 66 116 5.0 8.0 0.00 0.00 0.00 69 1020.5
20260904003512 66 90 6.0 8.0 0.00 0.00 0.00 71 1020.6
20260904003010 66 107 6.0 8.0 0.00 0.00 0.00 73 1020.6
20260904002610 65 103 6.0 8.0 0.00 0.00 0.00 75 1020.6
20260904002011 64 104 3.0 6.0 0.00 0.00 0.00 81 1020.7
20260904001508 65 96 0.0 5.0 0.00 0.00 0.00 84 1020.7
20260904001007 67 181 1.0 6.0 0.00 0.00 0.00 86 1020.7
20260904000509 68 141 2.0 6.0 0.00 0.00 0.00 85 1020.7
20260904000006 68 127 2.0 6.0 0.00 0.00 0.00 82 1020.8
20260903235505 68 172 3.0 6.0 0.00 0.00 0.00 81 1020.8
20260903235004 67 183 0.0 0.0 0.00 0.00 0.00 76 1020.9
20260903234505 67 168 0.0 2.0 0.00 0.00 0.00 68 1020.8
20260903234004 67 194 0.0 3.0 0.00 0.00 0.00 74 1020.8
20260903233502 67 197 1.0 4.0 0.00 0.00 0.00 70 1020.8
20260903233001 67 85 0.0 3.0 0.00 0.00 0.00 74 1020.8
20260903232501 67 85 2.0 4.0 0.00 0.00 0.00 73 1020.7
20260903232100 67 85 2.0 4.0 0.00 0.00 0.00 73 1020.7
20260903231559 67 86 0.0 3.0 0.00 0.00 0.00 77 1020.7
20260903231057 68 86 1.0 3.0 0.00 0.00 0.00 80 1020.7
20260903230558 68 86 0.0 0.0 0.00 0.00 0.00 80 1020.6
20260903230110 68 86 0.0 1.0 0.00 0.00 0.00 79 1020.6
20260903225556 68 86 0.0 2.0 0.00 0.00 0.00 79 1020.6
20260903225055 68 86 0.0 2.0 0.00 0.00 0.00 79 1020.6
20260903224626 68 86 0.0 1.0 0.00 0.00 0.00 80 1020.5
20260903224055 68 85 0.0 4.0 0.00 0.00 0.00 82 1020.6
20260903223555 68 85 0.0 4.0 0.00 0.00 0.00 82 1020.6
20260903223130 67 86 2.0 3.0 0.00 0.00 0.00 83 1020.6
20260903222554 68 21 0.0 3.0 0.00 0.00 0.00 86 1020.6
20260903222054 68 21 0.0 3.0 0.00 0.00 0.00 86 1020.6
20260903221555 68 88 0.0 4.0 0.00 0.00 0.00 87 1020.6
20260903221058 67 88 2.0 4.0 0.00 0.00 0.00 89 1020.4
20260903220554 66 88 2.0 4.0 0.00 0.00 0.00 91 1020.5
20260903220056 67 71 0.0 2.0 0.00 0.00 0.00 92 1020.5
20260903215555 67 26 1.0 2.0 0.00 0.00 0.00 92 1020.7
20260903215053 67 146 0.0 0.0 0.00 0.00 0.00 93 1020.9
20260903214602 67 146 0.0 0.0 0.00 0.00 0.00 93 1020.8
20260903214052 67 146 0.0 0.0 0.00 0.00 0.00 92 1020.5
20260903213551 67 146 0.0 1.0 0.00 0.00 0.00 92 1020.5
20260903213106 67 146 0.0 2.0 0.00 0.00 0.00 92 1020.6
20260903212551 67 146 0.0 2.0 0.00 0.00 0.00 92 1020.5
20260903212050 67 146 0.0 3.0 0.00 0.00 0.00 92 1020.4
20260903211549 67 146 0.0 3.0 0.00 0.00 0.00 92 1020.3
20260903211050 67 146 1.0 4.0 0.00 0.00 0.00 92 1020.1
20260903210548 67 146 1.0 4.0 0.00 0.00 0.00 92 1020.0
20260903210111 67 259 0.0 3.0 0.00 0.00 0.00 92 1019.9
20260903205548 68 259 1.0 3.0 0.00 0.00 0.00 91 1019.9
20260903205046 68 259 2.0 3.0 0.00 0.00 0.00 91 1019.7
20260903204546 68 259 2.0 3.0 0.00 0.00 0.00 91 1019.4
20260903204054 68 259 0.0 2.0 0.00 0.00 0.00 91 1019.3
20260903203546 68 259 0.0 1.0 0.00 0.00 0.00 90 1019.2
20260903203044 68 259 0.0 2.0 0.00 0.00 0.00 90 1019.3
20260903202544 68 259 0.0 2.0 0.00 0.00 0.00 90 1019.2
20260903202044 68 259 0.0 1.0 0.00 0.00 0.00 90 1019.2
20260903201544 68 259 0.0 3.0 0.00 0.00 0.00 90 1019.3
20260903201043 68 259 1.0 4.0 0.00 0.00 0.00 89 1019.2
20260903200543 68 259 2.0 4.0 0.00 0.00 0.00 89 1019.2
20260903200043 69 297 2.0 5.0 0.00 0.00 0.00 88 1019.0
20260903195543 69 297 2.0 3.0 0.00 0.00 0.00 87 1018.7
20260903195043 69 297 1.0 3.0 0.00 0.00 0.00 87 1018.7
20260903194548 69 297 1.0 4.0 0.00 0.00 0.00 86 1018.7
20260903194042 69 297 2.0 4.0 0.00 0.00 0.00 86 1018.7
20260903193542 70 297 0.0 2.0 0.00 0.00 0.00 86 1018.5
20260903193045 70 297 0.0 3.0 0.00 0.00 0.00 85 1018.5
20260903192542 70 297 1.0 4.0 0.00 0.00 0.00 85 1018.7
20260903192042 70 297 1.0 6.0 0.00 0.00 0.00 84 1018.6
20260903191541 71 290 2.0 4.0 0.00 0.00 0.00 83 1018.6
20260903191042 71 304 2.0 6.0 0.00 0.00 0.00 83 1018.5
20260903190541 72 275 0.0 3.0 0.00 0.00 0.00 82 1018.5
20260903190040 72 275 0.0 6.0 0.00 0.00 0.00 82 1018.5
20260903185641 72 275 2.0 7.0 0.00 0.00 0.00 81 1018.6
20260903185040 72 265 4.0 7.0 0.00 0.00 0.00 81 1018.6
20260903184549 72 290 2.0 7.0 0.00 0.00 0.00 81 1018.5
20260903184041 72 265 3.0 7.0 0.00 0.00 0.00 80 1018.4
20260903183539 73 253 2.0 5.0 0.00 0.00 0.00 80 1018.3
20260903183040 73 286 2.0 5.0 0.00 0.00 0.00 80 1018.4
20260903182539 73 265 2.0 8.0 0.00 0.00 0.00 79 1018.3
20260903182039 73 256 4.0 7.0 0.00 0.00 0.00 79 1018.4
20260903181539 74 262 4.0 7.0 0.00 0.00 0.00 79 1018.2
20260903181039 74 268 2.0 8.0 0.00 0.00 0.00 79 1018.4
20260903180539 74 336 4.0 8.0 0.00 0.00 0.00 79 1018.4
20260903180039 73 296 3.0 8.0 0.00 0.00 0.00 79 1018.3
20260903175537 74 272 5.0 8.0 0.00 0.00 0.00 78 1018.3
20260903175037 74 330 2.0 5.0 0.00 0.00 0.00 79 1018.3
20260903174537 74 276 1.0 7.0 0.00 0.00 0.00 80 1018.4
20260903174037 73 159 2.0 8.0 0.00 0.00 0.00 79 1018.4
20260903173537 73 267 3.0 8.0 0.00 0.00 0.00 79 1018.5
20260903173035 74 279 5.0 9.0 0.00 0.00 0.00 79 1018.6
20260903172536 74 284 4.0 9.0 0.00 0.00 0.00 79 1018.7
20260903172037 74 271 5.0 10.0 0.00 0.00 0.00 78 1018.7
20260903171535 74 263 3.0 10.0 0.00 0.00 0.00 78 1018.6
20260903171035 74 286 6.0 11.0 0.00 0.00 0.00 76 1018.6
20260903170535 74 336 2.0 11.0 0.00 0.00 0.00 77 1018.6
20260903170035 74 282 5.0 9.0 0.00 0.00 0.00 77 1018.6
20260903165535 74 315 3.0 12.0 0.00 0.00 0.00 77 1018.7
20260903165034 74 262 7.0 12.0 0.00 0.00 0.00 75 1018.8
20260903164535 74 262 5.0 11.0 0.00 0.00 0.00 76 1018.7
20260903164034 74 276 4.0 12.0 0.00 0.00 0.00 74 1018.7
20260903163537 75 281 8.0 13.0 0.00 0.00 0.00 74 1018.7
20260903163039 75 251 6.0 13.0 0.00 0.00 0.00 74 1018.6
20260903162533 74 232 8.0 13.0 0.00 0.00 0.00 73 1018.6
20260903162033 75 261 6.0 13.0 0.00 0.00 0.00 73 1018.6
20260903161532 75 292 5.0 14.0 0.00 0.00 0.00 72 1018.6
20260903161031 76 262 8.0 13.0 0.00 0.00 0.00 69 1018.4
20260903160531 76 254 8.0 12.0 0.00 0.00 0.00 68 1018.4
20260903160040 76 279 7.0 13.0 0.00 0.00 0.00 68 1018.5
20260903155530 76 290 9.0 13.0 0.00 0.00 0.00 68 1018.4
20260903155030 77 282 9.0 13.0 0.00 0.00 0.00 66 1018.2
20260903154531 77 275 8.0 13.0 0.00 0.00 0.00 63 1018.2
20260903154038 78 217 7.0 11.0 0.00 0.00 0.00 61 1018.2
20260903153529 78 276 7.0 12.0 0.00 0.00 0.00 61 1018.2
20260903153029 78 291 6.0 12.0 0.00 0.00 0.00 61 1018.2
20260903152530 78 266 5.0 12.0 0.00 0.00 0.00 61 1018.3
20260903152032 78 277 6.0 12.0 0.00 0.00 0.00 60 1018.4
20260903151529 78 263 8.0 12.0 0.00 0.00 0.00 60 1018.3
20260903151029 78 259 7.0 13.0 0.00 0.00 0.00 60 1018.2
20260903150530 77 245 7.0 13.0 0.00 0.00 0.00 61 1018.3
20260903150038 77 273 5.0 11.0 0.00 0.00 0.00 61 1018.3
20260903145532 78 265 6.0 11.0 0.00 0.00 0.00 61 1018.4
20260903145031 77 219 6.0 11.0 0.00 0.00 0.00 61 1018.4
20260903144535 78 261 7.0 11.0 0.00 0.00 0.00 60 1018.4
20260903144028 78 284 5.0 12.0 0.00 0.00 0.00 62 1018.4
20260903143530 78 266 6.0 12.0 0.00 0.00 0.00 61 1018.4
20260903143027 79 246 7.0 12.0 0.00 0.00 0.00 60 1018.4
20260903142527 80 298 6.0 12.0 0.00 0.00 0.00 60 1018.4
20260903142027 80 267 6.0 10.0 0.00 0.00 0.00 59 1018.3
20260903141526 80 292 4.0 8.0 0.00 0.00 0.00 59 1018.3
20260903141025 80 276 2.0 8.0 0.00 0.00 0.00 60 1018.2
20260903140525 80 258 2.0 8.0 0.00 0.00 0.00 60 1018.1
20260903140024 79 253 3.0 9.0 0.00 0.00 0.00 61 1018.1
20260903135522 78 355 2.0 8.0 0.00 0.00 0.00 63 1018.1
20260903135022 78 277 3.0 9.0 0.00 0.00 0.00 63 1018.3
20260903134521 78 286 5.0 9.0 0.00 0.00 0.00 64 1018.4
20260903134021 77 218 4.0 9.0 0.00 0.00 0.00 64 1018.6
20260903133520 77 257 6.0 9.0 0.00 0.00 0.00 64 1018.6
20260903133020 77 283 5.0 10.0 0.00 0.00 0.00 64 1018.5
20260903132519 77 271 6.0 10.0 0.00 0.00 0.00 65 1018.5
20260903132019 77 315 5.0 10.0 0.00 0.00 0.00 65 1018.5
20260903131519 77 279 3.0 8.0 0.00 0.00 0.00 65 1018.5
20260903131019 77 282 4.0 8.0 0.00 0.00 0.00 65 1018.6
20260903130520 76 152 3.0 9.0 0.00 0.00 0.00 67 1018.7
20260903130018 76 217 4.0 10.0 0.00 0.00 0.00 66 1018.8
20260903125517 76 250 6.0 10.0 0.00 0.00 0.00 66 1018.8
20260903125017 76 310 3.0 11.0 0.00 0.00 0.00 67 1018.9
20260903124516 75 275 6.0 11.0 0.00 0.00 0.00 67 1019.0
20260903124015 75 267 7.0 9.0 0.00 0.00 0.00 67 1019.0
20260903123514 75 286 3.0 9.0 0.00 0.00 0.00 67 1019.0
20260903123015 75 279 4.0 8.0 0.00 0.00 0.00 68 1019.0
20260903122513 75 277 3.0 9.0 0.00 0.00 0.00 68 1019.1
20260903122012 75 263 4.0 10.0 0.00 0.00 0.00 68 1019.3
20260903121521 74 256 5.0 10.0 0.00 0.00 0.00 68 1019.4
20260903121010 74 327 6.0 15.0 0.00 0.00 0.00 68 1019.4
20260903120508 75 261 8.0 15.0 0.00 0.00 0.00 66 1019.5
20260903120011 75 269 6.0 10.0 0.00 0.00 0.00 65 1019.4
20260903115506 75 260 8.0 12.0 0.00 0.00 0.00 64 1019.5
20260903115005 76 232 8.0 12.0 0.00 0.00 0.00 62 1019.5
20260903114503 77 232 10.0 13.0 0.00 0.00 0.00 60 1019.4
20260903114003 77 247 8.0 12.0 0.00 0.00 0.00 59 1019.3
20260903113600 77 251 2.0 5.0 0.00 0.00 0.00 60 1019.2
20260903113100 76 258 3.0 7.0 0.00 0.00 0.00 60 1019.2
20260903112600 76 202 2.0 10.0 0.00 0.00 0.00 61 1019.2
20260903112100 76 202 6.0 10.0 0.00 0.00 0.00 61 1019.2
20260903111557 76 232 6.0 9.0 0.00 0.00 0.00 60 1019.1
20260903111057 77 264 5.0 9.0 0.00 0.00 0.00 61 1019.1
20260903110557 76 220 5.0 12.0 0.00 0.00 0.00 62 1019.0
20260903110056 77 247 6.0 10.0 0.00 0.00 0.00 62 1019.1
20260903105555 77 242 5.0 10.0 0.00 0.00 0.00 60 1019.1
20260903105054 77 270 4.0 9.0 0.00 0.00 0.00 58 1019.1
20260903104601 77 257 5.0 9.0 0.00 0.00 0.00 55 1019.1
20260903104052 76 276 6.0 10.0 0.00 0.00 0.00 57 1019.1